Flag Weather past 2 weeks in Augsburg, Bavaria, Germany

Now
34 °F

Fog.


Feels Like: 27 °F
Forecast: 35 / 41 °F
Wind: 8 mph from East

Location: Augsburg Airport

Current Time: Nov 29, 2014 at 8:55:11 AM

Latest Report: Nov 29, 2014 at 8:20 AM


Visibility: 1 mi

Pressure: 29.95 "Hg

Humidity: 100%

Dew point: 34 °F

Location of AugsburgLocation

Historic Weather in Augsburg — Graph

°F

Augsburg temperature yesterday

Maximum temperature yesterday: 34 °F (at 6:50 AM)
Minimum temperature yesterday: 32 °F (at 8:50 AM)
Average temperature yesterday: 34 °F

Past Weeks' High & Low Weather Summary

 TemperatureHumidityPressure
High52 °F (Nov 16, 11:50 AM)100% (Nov 14, 7:20 AM)30.30 "Hg (Nov 14, 7:20 AM)
Low32 °F (Nov 28, 8:50 AM)62% (Nov 16, 12:50 PM)29.53 "Hg (Nov 15, 8:20 PM)
Average41 °F98%29.97 "Hg
* Reported Nov 14 7:20 AM — Nov 29 7:20 AM, Augsburg, Weather by CustomWeather, © 2014

Note: Actual official high and low records may vary slightly from our data, if they occured in-between our weather recording intervals... More about our weather records

Advertising

Augsburg weather history for previous 24 hours

 ConditionsComfort  
Time TempWeatherWind HumidityBarometerVisibility
7:20 AM
Nov 29
34 °FFog.8 mph100%29.95 "Hg1 mi
6:50 AM34 °FFog.6 mph100%29.95 "Hg1 mi
8:50 PM
Nov 28
34 °FFog.9 mph100%29.89 "Hg3 mi
8:20 PM34 °FFog.8 mph100%29.89 "Hg2 mi
7:50 PM34 °FLow clouds.7 mph100%29.89 "Hg3 mi
7:20 PM34 °FFog.8 mph100%29.89 "Hg2 mi
6:50 PM34 °FFog.9 mph100%29.89 "Hg2 mi
6:20 PM34 °FFog.8 mph100%29.86 "Hg1 mi
5:50 PM34 °FFog.8 mph100%29.86 "Hg1 mi
5:20 PM34 °FLow clouds.8 mph100%29.86 "Hg1 mi
4:50 PM34 °FLow clouds.10 mph100%29.86 "Hg1 mi
4:20 PM34 °FLow clouds.12 mph100%29.86 "Hg1 mi
3:50 PM34 °FFog.13 mph100%29.83 "Hg1 mi
3:20 PM34 °FLow clouds.12 mph100%29.86 "Hg1 mi
2:50 PM34 °FFog.8 mph100%29.86 "Hg1 mi
2:20 PM34 °FFog.10 mph100%29.83 "Hg1 mi
1:50 PM34 °FFog.9 mph100%29.83 "Hg1 mi
1:20 PM34 °FFog.12 mph100%29.86 "Hg1 mi
12:50 PM34 °FFog.12 mph100%29.86 "Hg1 mi
12:20 PM34 °FFog.10 mph100%29.86 "Hg1 mi
11:50 AM34 °FFog.12 mph100%29.86 "Hg1 mi
11:20 AM34 °FFog.10 mph100%29.86 "Hg1 mi
10:50 AM34 °FFog.9 mph100%29.89 "Hg1 mi
10:20 AM34 °FFog.8 mph100%29.89 "Hg1 mi
9:50 AM32 °FFog.12 mph100%29.86 "Hg1 mi
9:20 AM34 °FFog.9 mph100%29.86 "Hg1 mi
8:50 AM32 °FFog.8 mph100%29.86 "Hg1 mi
8:20 AM34 °FFog.8 mph100%29.86 "Hg1 mi
Weather by CustomWeather, © 2014

See weather overviewHow to use our weather pages